When you browse on this site, cookies collect data to enhance your experience and personalize the content and advertising you see.
Visit our Privacy Policy to learn more. By continuing to use the site, you agree to this use of cookies and data.
  • în România
  • Lista ţărilor
  • Pe 7 zile
  • Temperatura apei
  • Hartă satelitară
  • Meteo pe hartă
  • Widget-uri
  • user-avatar
    Intrare

    Meteo pe oră la Tafilah

    Astăzi, 21 Ianuarie, Luni

    Timp Temperatura Precipitaţii Vânt Presiune Umiditate
    00:00 +11°C° 0 mm 1 m/s 700 mmHg 25%
    01:00 +11°C° 0 mm 1 m/s 700 mmHg 25%
    02:00 +11°C° 0 mm 1 m/s 699 mmHg 26%
    03:00 +11°C° 0 mm 1 m/s 699 mmHg 27%
    04:00 +11°C° 0 mm 1 m/s 699 mmHg 28%
    05:00 +11°C° 0 mm 1 m/s 699 mmHg 28%
    06:00 +11°C° 0 mm 1 m/s 699 mmHg 29%
    07:00 +12°C° 0 mm 1 m/s 700 mmHg 30%
    08:00 +12°C° 0 mm 1 m/s 700 mmHg 30%
    09:00 +14°C° 0 mm 1 m/s 700 mmHg 29%
    10:00 +15°C° 0 mm 2 m/s 701 mmHg 28%
    11:00 +17°C° 0 mm 2 m/s 701 mmHg 27%
    12:00 +17°C° 0 mm 2 m/s 700 mmHg 27%
    13:00 +18°C° 0 mm 2 m/s 700 mmHg 27%
    14:00 +19°C° 0 mm 3 m/s 700 mmHg 26%
    15:00 +18°C° 0 mm 2 m/s 700 mmHg 28%
    16:00 +18°C° 0 mm 1 m/s 699 mmHg 30%
    17:00 +16°C° 0 mm 1 m/s 699 mmHg 32%
    18:00 +15°C° 0 mm 1 m/s 699 mmHg 34%
    19:00 +14°C° 0 mm 1 m/s 699 mmHg 36%
    20:00 +14°C° 0 mm 1 m/s 699 mmHg 38%
    21:00 +13°C° 0 mm 1 m/s 699 mmHg 38%
    22:00 +13°C° 0 mm 1 m/s 699 mmHg 39%
    23:00 +12°C° 0 mm 1 m/s 699 mmHg 40%

    Mâine, 22 Ianuarie, Marţi

    Timp Temperatura Precipitaţii Vânt Presiune Umiditate
    00:00 +12°C° 0 mm 1 m/s 699 mmHg 40%
    01:00 +11°C° 0 mm 1 m/s 699 mmHg 40%
    02:00 +11°C° 0 mm 1 m/s 699 mmHg 40%
    03:00 +11°C° 0 mm 1 m/s 698 mmHg 40%
    04:00 +10°C° 0 mm 1 m/s 698 mmHg 41%
    05:00 +10°C° 0 mm 1 m/s 698 mmHg 41%
    06:00 +11°C° 0 mm 1 m/s 698 mmHg 38%
    07:00 +12°C° 0 mm 1 m/s 699 mmHg 35%
    08:00 +13°C° 0 mm 1 m/s 699 mmHg 32%
    09:00 +14°C° 0 mm 1 m/s 700 mmHg 28%
    10:00 +16°C° 0 mm 2 m/s 700 mmHg 24%
    11:00 +18°C° 0 mm 3 m/s 700 mmHg 21%
    12:00 +18°C° 0 mm 3 m/s 700 mmHg 20%
    13:00 +18°C° 0 mm 3 m/s 699 mmHg 19%
    14:00 +18°C° 0 mm 3 m/s 699 mmHg 18%
    15:00 +17°C° 0 mm 3 m/s 699 mmHg 20%
    16:00 +16°C° 0 mm 3 m/s 699 mmHg 22%
    17:00 +15°C° 0 mm 2 m/s 699 mmHg 24%
    18:00 +14°C° 0 mm 2 m/s 699 mmHg 28%
    19:00 +13°C° 0 mm 1 m/s 699 mmHg 32%
    20:00 +12°C° 0 mm 1 m/s 699 mmHg 36%
    21:00 +12°C° 0 mm 1 m/s 699 mmHg 40%
    22:00 +11°C° 0 mm 1 m/s 699 mmHg 44%
    23:00 +10°C° 0 mm 1 m/s 699 mmHg 48%

    Poimâine, 23 Ianuarie, Miercuri

    Timp Temperatura Precipitaţii Vânt Presiune Umiditate
    00:00 +10°C° 0 mm 1 m/s 699 mmHg 50%
    01:00 +9°C° 0 mm 1 m/s 699 mmHg 51%
    02:00 +9°C° 0 mm 1 m/s 699 mmHg 53%
    03:00 +9°C° 0 mm 1 m/s 698 mmHg 51%
    04:00 +9°C° 0 mm 1 m/s 698 mmHg 49%
    05:00 +8°C° 0 mm 1 m/s 698 mmHg 47%
    06:00 +9°C° 0 mm 1 m/s 699 mmHg 42%
    07:00 +9°C° 0 mm 2 m/s 699 mmHg 37%
    08:00 +10°C° 0 mm 2 m/s 699 mmHg 32%
    09:00 +13°C° 0 mm 2 m/s 700 mmHg 28%
    10:00 +15°C° 0 mm 2 m/s 700 mmHg 24%
    11:00 +17°C° 0 mm 2 m/s 700 mmHg 20%
    12:00 +17°C° 0 mm 2 m/s 699 mmHg 18%
    13:00 +18°C° 0 mm 2 m/s 699 mmHg 17%
    14:00 +19°C° 0 mm 2 m/s 698 mmHg 16%
    15:00 +18°C° 0 mm 2 m/s 698 mmHg 17%
    16:00 +18°C° 0 mm 1 m/s 697 mmHg 19%
    17:00 +16°C° 0 mm 1 m/s 697 mmHg 21%
    18:00 +16°C° 0 mm 2 m/s 697 mmHg 21%
    19:00 +15°C° 0 mm 2 m/s 697 mmHg 21%
    20:00 +14°C° 0 mm 3 m/s 698 mmHg 21%
    21:00 +13°C° 0 mm 3 m/s 697 mmHg 22%
    22:00 +13°C° 0 mm 3 m/s 697 mmHg 22%
    23:00 +13°C° 0 mm 3 m/s 697 mmHg 22%

    24 Ianuarie, Joi

    Timp Temperatura Precipitaţii Vânt Presiune Umiditate
    00:00 +12°C° 0 mm 3 m/s 697 mmHg 22%
    01:00 +12°C° 0 mm 3 m/s 697 mmHg 23%
    02:00 +12°C° 0 mm 3 m/s 696 mmHg 23%
    03:00 +12°C° 0 mm 3 m/s 696 mmHg 22%
    04:00 +11°C° 0 mm 3 m/s 696 mmHg 22%
    05:00 +11°C° 0 mm 3 m/s 696 mmHg 21%
    06:00 +12°C° 0 mm 3 m/s 696 mmHg 20%
    07:00 +13°C° 0 mm 3 m/s 697 mmHg 18%
    08:00 +13°C° 0 mm 3 m/s 697 mmHg 17%
    09:00 +16°C° 0 mm 2 m/s 697 mmHg 15%
    10:00 +18°C° 0 mm 2 m/s 697 mmHg 12%
    11:00 +21°C° 0 mm 1 m/s 698 mmHg 10%
    12:00 +21°C° 0 mm 2 m/s 697 mmHg 10%
    13:00 +23°C° 0 mm 2 m/s 697 mmHg 11%
    14:00 +24°C° 0 mm 3 m/s 696 mmHg 11%
    15:00 +21°C° 0 mm 2 m/s 696 mmHg 13%
    16:00 +20°C° 0 mm 2 m/s 696 mmHg 16%
    17:00 +19°C° 0 mm 1 m/s 696 mmHg 19%
    18:00 +18°C° 0 mm 1 m/s 697 mmHg 20%
    19:00 +18°C° 0 mm 1 m/s 697 mmHg 21%
    20:00 +16°C° 0 mm 2 m/s 698 mmHg 22%
    21:00 +15°C° 0 mm 1 m/s 698 mmHg 25%
    22:00 +15°C° 0 mm 1 m/s 698 mmHg 28%
    23:00 +14°C° 0 mm 1 m/s 698 mmHg 31%

    25 Ianuarie, Vineri

    Timp Temperatura Precipitaţii Vânt Presiune Umiditate
    00:00 +13°C° 0 mm 1 m/s 698 mmHg 36%
    01:00 +12°C° 0 mm 1 m/s 698 mmHg 41%
    02:00 +11°C° 0 mm 1 m/s 698 mmHg 46%
    03:00 +11°C° 0 mm 1 m/s 698 mmHg 47%
    04:00 +11°C° 0 mm 1 m/s 698 mmHg 49%
    05:00 +10°C° 0 mm 1 m/s 698 mmHg 50%
    06:00 +11°C° 0 mm 1 m/s 698 mmHg 48%
    07:00 +12°C° 0 mm 1 m/s 699 mmHg 45%
    08:00 +13°C° 0 mm 1 m/s 700 mmHg 42%
    09:00 +15°C° 0 mm 1 m/s 700 mmHg 37%
    10:00 +18°C° 0 mm 1 m/s 700 mmHg 33%
    11:00 +19°C° 0 mm 1 m/s 700 mmHg 29%
    12:00 +20°C° 0 mm 1 m/s 700 mmHg 28%
    13:00 +21°C° 0 mm 1 m/s 699 mmHg 27%
    14:00 +21°C° 0 mm 2 m/s 699 mmHg 26%
    15:00 +20°C° 0 mm 2 m/s 699 mmHg 28%
    16:00 +20°C° 0 mm 1 m/s 698 mmHg 29%
    17:00 +19°C° 0 mm 1 m/s 698 mmHg 30%
    18:00 +18°C° 0 mm 1 m/s 698 mmHg 31%
    19:00 +16°C° 0 mm 1 m/s 698 mmHg 32%
    20:00 +15°C° 0 mm 1 m/s 699 mmHg 33%
    21:00 +15°C° 0 mm 1 m/s 698 mmHg 35%
    22:00 +14°C° 0 mm 1 m/s 698 mmHg 37%
    23:00 +14°C° 0 mm 1 m/s 698 mmHg 39%

    26 Ianuarie, Sâmbătă

    Timp Temperatura Precipitaţii Vânt Presiune Umiditate
    00:00 +13°C° 0 mm 1 m/s 698 mmHg 41%
    01:00 +13°C° 0 mm 1 m/s 698 mmHg 42%
    02:00 +13°C° 0 mm 1 m/s 697 mmHg 44%
    03:00 +12°C° 0 mm 1 m/s 697 mmHg 43%
    04:00 +12°C° 0 mm 1 m/s 697 mmHg 43%
    05:00 +12°C° 0 mm 1 m/s 697 mmHg 43%
    06:00 +12°C° 0 mm 1 m/s 697 mmHg 40%
    07:00 +13°C° 0 mm 1 m/s 698 mmHg 36%
    08:00 +14°C° 0 mm 1 m/s 698 mmHg 33%
    09:00 +16°C° 0 mm 1 m/s 698 mmHg 30%
    10:00 +19°C° 0 mm 1 m/s 698 mmHg 26%
    11:00 +20°C° 0 mm 1 m/s 699 mmHg 22%
    12:00 +20°C° 0 mm 2 m/s 698 mmHg 22%
    13:00 +21°C° 0 mm 2 m/s 698 mmHg 21%
    14:00 +21°C° 0 mm 2 m/s 697 mmHg 21%
    15:00 +20°C° 0 mm 2 m/s 697 mmHg 22%
    16:00 +19°C° 0 mm 2 m/s 697 mmHg 24%
    17:00 +19°C° 0 mm 1 m/s 696 mmHg 25%
    18:00 +19°C° 0 mm 1 m/s 697 mmHg 26%
    19:00 +19°C° 0 mm 1 m/s 697 mmHg 28%
    20:00 +18°C° 0 mm 1 m/s 697 mmHg 29%
    21:00 +18°C° 0 mm 1 m/s 697 mmHg 31%
    22:00 +18°C° 0 mm 1 m/s 697 mmHg 33%
    23:00 +16°C° 0 mm 1 m/s 696 mmHg 35%
    Arată mai mult